OPS 4682 DEB, 26732

Orbit data source: Space-Track

OPS 4682 DEB, 26732 is space debris in LEO originally from a launch on Sat, 03 Apr 1965 UTC launched from the Air Force Western Test Range (AFWTR). Debris objects in space refer to the collection of defunct objects orbiting the Earth. Examples of debris include non-operational satellites, rocket bodies, and fragments generated from explosions, collisions, or faulty payload assembly.

Loading next visibility...
Identifier
26732, 1965-027BF
Orbit
LEO
Country
Flag of USUS
Related business
Manufacturer
Unknown
Mission
Spacecraft
Bus & Motor
Unknown
Mass
Unknown
Launch date (UTC)
1965-04-03 (61 years ago)
Launch vehicle
Unknown
Launch site
Air Force Western Test Range (AFWTR)
Object type
Payload
Rocket body
Debris
Shape & HBR
Unknown shape, 0.1 m
Radar Cross Section
Small (<0.1 m²)

Expand to show TLE details & history
Last TLE update: 17 hours ago

TLE from 17 hours ago
0 OPS 4682 DEB
1 26732U 65027BF  26104.22052319  .00001398  00000-0  48542-2 0  9993
2 26732  90.2589   9.6675 0063084 354.0041 160.9139 12.95931487486888
Epoch: 2026-04-14T05:17Z
TLE epoch observation values (Epoch: 2026-04-14T05:17:33.203Z)
Latitude
24.87116°
Longitude
-92.00132°
Altitude
1,326.756 km
Speed
7.174 km/s
True Right ascension
12h 39m 08s
True Declination
24° 44' 60"
Sunlit
Object was in full shadow at epoch
Visualization orbit readout
Latitude
Unknown
Longitude
Unknown
Altitude
Unknown
Speed
Unknown
Apparent Right ascension
Unknown
Apparent Declination
Unknown
Sunlit
N/A
Visualization observer readout
Local Sidereal Time
04:25:02
Azimuth
Unknown
Elevation
Unknown
Doppler factor
Unknown
Orbital elements
Apogee altitude
1,323.482 km
Perigee altitude
1,226.922 km
Semi-major axis
7,653.339 km
Eccentricity
0.00631
Inclination
90.2589°
RAAN
9.6675°
Arg. of periapsis
354.0041°
True anomaly
161.14853°
Mean anomaly
160.9139°
Eccentric anomaly
161.03139°
Mean motion
3.24165 °/min
Orbital period
111.05 mins
BSTAR
0.0048542
Loading maneuver chart data...
Computing Atmospheric mass density...
Loading historical data...
Loading historical data...
Loading historical data...
Loading historical data...
Loading historical data...
Loading historical data...
Loading historical data...

Documentation

Showing up to 5 results
|